Regional Weather Roundup
Issued by NWS

Home | Current Version | Previous Version | Text Only | Print | Product List | Glossary On
Versions: 1 2 3 4 5 6 7 8 9 10 11 12 13 14 15 16 17 18 19 20 21 22 23 24 25 26 27 28 29 30 31 32 33 34 35 36 37 38 39 40 41 42 43 44 45 46 47 48 49 50
000
ASUS43 KOAX 261802
RWRNE

WEATHER ROUNDUP FOR NEBRASKA
NATIONAL WEATHER SERVICE OMAHA NE
1200 PM CST MON JAN 26 2015

NOTES: SATELLITE DATA IS BEING USED TO AUGMENT CLOUD COVER ABOVE
       12000 FEET.
       "FAIR" INDICATES FEW OR NO CLOUDS BELOW 12,000 FEET WITH NO
       SIGNIFICANT WEATHER AND/OR OBSTRUCTIONS TO VISIBILITY.

  * THESE STATIONS DO NOT REPORT WEATHER SUCH AS RAIN...SNOW OR FOG.

NEZ001>004-019>022-054>056-261900-
NEBRASKA PANHANDLE

CITY           SKY/WX    TMP DP  RH WIND       PRES   REMARKS
SCOTTSBLUFF    SUNNY     53  34  48 NW9       30.19F
6HR MIN TEMP:  33; 6HR MAX TEMP:  53;

ALLIANCE       SUNNY     54  35  48 W14       30.15S
6HR MIN TEMP:  32; 6HR MAX TEMP:  54;

CHADRON        SUNNY     57  33  40 W17G24    30.12F
6HR MIN TEMP:  36; 6HR MAX TEMP:  57;

SIDNEY         SUNNY     61  30  31 NW16      30.20S
6HR MIN TEMP:  38; 6HR MAX TEMP:  61;

$$

NEZ057>060-069>072-079>082-261900-
SOUTHWEST NEBRASKA

CITY           SKY/WX    TMP DP  RH WIND       PRES   REMARKS
NORTH PLATTE   SUNNY     62  32  32 NW14      30.10F
6HR MIN TEMP:  26; 6HR MAX TEMP:  62;

IMPERIAL       SUNNY     62  29  28 NW24      30.15S
6HR MIN TEMP:  39; 6HR MAX TEMP:  62;

LEXINGTON      SUNNY     57  35  42 NW20G25   30.06F
MCCOOK         SUNNY     64  32  30 NW13      30.10F
6HR MIN TEMP:  38; 6HR MAX TEMP:  64;

$$

NEZ005>010-023>029-035>040-094-261900-
NORTH CENTRAL NEBRASKA

CITY           SKY/WX    TMP DP  RH WIND       PRES   REMARKS
VALENTINE      SUNNY     59  33  37 NW10      30.03F
6HR MIN TEMP:  31; 6HR MAX TEMP:  59;

BROKEN BOW     SUNNY     61  35  37 NW25G36   30.04R
6HR MIN TEMP:  43; 6HR MAX TEMP:  61;

ORD            SUNNY     57  34  41 NW13      30.03R
6HR MIN TEMP:  26; 6HR MAX TEMP:  57;

$$

NEZ041-046>049-061>064-073>077-083>087-261900-
SOUTH CENTRAL NEBRASKA

CITY           SKY/WX    TMP DP  RH WIND       PRES   REMARKS
GRAND ISLAND   SUNNY     58  33  39 NW16G23   30.03R
6HR MIN TEMP:  33; 6HR MAX TEMP:  59;

AURORA         SUNNY     57  34  41 NW16      30.01R
HASTINGS       SUNNY     59  32  36 N21G31    30.03R
6HR MIN TEMP:  34; 6HR MAX TEMP:  59;

KEARNEY *      SUNNY     61  34  36 NW17      30.04S
$$

NEZ011>018-030>034-042>045-261900-
NORTHEAST NEBRASKA

CITY           SKY/WX    TMP DP  RH WIND       PRES   REMARKS
NORFOLK        SUNNY     54  36  50 NW17      29.95S
6HR MIN TEMP:  35; 6HR MAX TEMP:  54;

ALBION         SUNNY     55  33  43 NW20      29.98S
COLUMBUS *     SUNNY     55  36  47 NW17      29.99S
FREMONT        SUNNY     55  36  48 NW22      29.95R
TEKAMAH        SUNNY     53  39  59 NW21      29.93R
6HR MIN TEMP:  31; 6HR MAX TEMP:  53;

$$

NEZ050>053-065>068-078-088>093-261900-
SOUTHEAST NEBRASKA

CITY           SKY/WX    TMP DP  RH WIND       PRES   REMARKS
LINCOLN        SUNNY     56  36  47 NW16      29.97R
6HR MIN TEMP:  30; 6HR MAX TEMP:  56;

OMAHA EPPLEY   MOSUNNY   54  37  52 NW13      29.90S
6HR MIN TEMP:  27; 6HR MAX TEMP:  54;

FALLS CITY     SUNNY     54  36  50 NW18      29.91F
6HR MIN TEMP:  23; 6HR MAX TEMP:  54;

$$

NEZ044-045-051>053-067-261900-
OMAHA AREA

CITY           SKY/WX    TMP DP  RH WIND       PRES   REMARKS
OMAHA EPPLEY   MOSUNNY   54  37  52 NW13      29.90S
6HR MIN TEMP:  27; 6HR MAX TEMP:  54;

FREMONT        SUNNY     55  36  48 NW22      29.95R
OFFUTT AFB     SUNNY     53  37  54 NW15      29.91R
$$


USA.gov is the U.S. government's official web portal to all federal, state and local government web resources and services.